Wind_Speed
21 22 22 24 26 26 25 25 26 30 33 33 33 33 24 24 27 26 26 25 23 24 23 15 10 11 15 12 10 12 10 5 6 4 4 3 5 3 4 5 8 4 5 4 4 2 1 6 4 3 2 4 5 5
24 25 26 27 27 25 26 27 31 34 36 36 36 31 23 24 25 24 26 25 21 19 21 23 20 18 16 13 14 13 10 8 5 4 4 4 7 5 8 8 6 3 2 3 2 3 5 4 3 2 1 3 3 5
27 27 28 28 28 28 29 29 32 35 37 39 33 27 27 22 23 21 25 21 18 21 20 11 12 12 8 11 14 10 10 9 8 8 9 7 5 7 8 4 7 8 6 4 1 6 6 3 2 3 3 4 5 5
30 30 30 30 30 30 29 32 35 37 39 39 29 25 28 22 24 26 22 18 15 18 19 11 5 9 11 11 10 13 12 11 11 9 9 11 9 8 9 9 9 10 8 5 5 7 7 5 3 3 3 3 4 5
32 32 32 31 30 28 31 33 35 38 41 39 33 27 22 19 18 18 19 16 13 13 11 12 14 11 9 14 14 10 9 10 9 10 9 12 11 11 13 13 14 11 9 8 10 7 7 7 6 7 6 7 7 7
33 34 33 30 28 30 30 33 39 42 42 36 27 22 18 20 19 17 14 25 14 8 9 7 11 11 9 7 9 10 9 9 9 9 10 11 10 7 5 6 7 7 7 8 8 8 8 8 9 9 10 10 10 9
34 34 32 28 29 29 33 38 42 44 39 32 27 20 19 18 16 14 16 15 13 7 6 6 7 7 6 6 7 8 7 7 8 8 10 10 7 6 7 7 7 6 5 5 5 5 6 8 8 8 9 10 11 11
35 34 31 29 32 37 39 40 43 40 32 26 22 18 13 7 9 8 8 4 4 9 7 4 6 8 8 5 3 5 8 9 9 7 6 6 4 5 3 4 4 4 4 4 4 5 5 7 8 9 9 11 11 12
35 33 31 32 34 37 41 43 40 33 25 22 18 14 11 6 5 10 12 9 4 5 4 4 5 5 4 5 8 9 7 9 6 6 6 4 4 3 3 3 3 3 3 3 4 5 5 6 7 8 9 10 10 11
34 32 31 33 36 40 43 40 32 25 22 18 14 10 3 4 2 5 6 4 3 0 4 2 4 5 8 11 6 4 5 6 4 4 3 3 3 4 3 3 2 3 4 4 5 5 6 7 8 9 9 10 10 10
34 32 33 35 39 42 41 31 24 22 19 15 9 5 4 2 2 3 2 2 3 2 3 5 9 12 11 6 5 4 3 3 2 4 3 1 2 2 2 2 3 4 5 5 6 6 7 8 9 10 11 11 11 10
33 32 33 37 41 41 29 24 22 19 16 11 7 4 3 3 3 2 3 3 4 2 9 12 12 11 7 4 2 3 3 4 3 5 3 2 3 2 2 3 4 6 7 7 7 7 7 8 8 9 9 10 10 10
31 32 36 41 40 27 23 22 19 16 12 8 4 3 2 3 4 4 7 5 8 11 14 13 11 9 3 2 2 2 3 3 4 3 2 5 3 3 4 5 5 6 7 8 8 8 7 7 7 8 8 8 9 9
31 35 40 38 27 22 22 19 16 13 10 6 2 4 4 5 7 7 10 11 12 13 13 12 9 5 4 3 2 2 2 4 2 3 1 3 4 5 7 7 7 8 8 8 8 8 8 7 7 8 8 8 8 8
33 39 38 26 20 21 20 17 14 10 7 2 3 5 8 8 10 11 12 12 13 12 12 9 6 4 3 2 2 2 2 3 4 2 3 5 7 8 8 8 8 9 9 9 9 9 9 9 9 9 9 9 9 8
36 36 28 20 18 20 19 16 12 7 4 6 7 7 7 9 9 10 10 11 11 11 9 5 2 2 0 0 1 3 3 4 2 4 6 7 7 7 7 7 8 8 9 9 9 10 10 10 11 11 11 11 11 11
35 28 22 19 20 21 17 13 6 6 5 6 9 10 11 10 11 11 10 10 10 9 6 2 1 1 1 3 4 4 2 3 4 6 6 6 6 6 7 7 7 8 8 8 8 9 10 11 12 13 13 14 14 14
27 22 18 18 19 18 13 9 6 7 11 10 10 12 13 14 14 12 11 9 6 6 5 3 4 2 4 4 4 4 4 5 6 6 6 6 7 7 8 8 8 9 9 9 9 9 10 10 11 11 12 13 14 14
22 18 17 18 18 12 7 10 8 8 12 12 12 14 16 19 20 19 15 10 7 6 4 6 5 8 7 6 5 5 6 6 6 6 7 7 8 8 9 9 9 9 9 9 10 10 10 11 12 12 12 13 14 14
20 20 18 18 17 7 5 7 10 9 11 11 12 15 18 21 22 21 19 14 10 7 11 12 12 9 7 7 6 6 6 6 7 7 7 7 8 9 9 9 10 10 10 11 12 12 13 13 14 15 15 15 15 15
19 17 17 19 13 6 8 7 7 6 9 10 10 13 16 13 17 18 18 17 19 23 20 15 12 11 9 9 8 7 7 8 8 8 8 8 9 9 10 10 11 11 11 12 13 13 13 14 14 15 15 16 16 16
17 15 14 9 6 15 12 11 8 11 11 9 10 13 13 14 15 18 19 21 23 19 16 14 12 11 10 10 9 9 9 9 9 9 9 9 9 10 11 11 11 12 11 11 12 12 13 14 15 15 16 16 17 17
15 12 9 11 9 6 9 9 10 8 6 8 9 12 13 15 17 18 18 19 19 18 16 15 13 12 11 11 11 11 11 10 10 10 11 11 10 9 10 11 11 12 13 13 14 15 15 16 16 17 16 16 17 17
11 8 9 7 7 8 9 8 8 9 8 7 8 9 11 14 15 17 18 18 17 16 15 14 14 15 14 13 12 12 12 12 11 10 10 11 12 12 12 12 13 13 13 14 15 16 18 18 18 17 17 17 17 16
7 6 5 8 5 6 9 10 8 8 9 8 9 9 8 7 11 17 16 16 15 15 15 15 15 14 14 14 14 14 13 13 13 13 13 12 12 13 14 14 15 15 16 16 16 17 18 20 20 20 19 18 16 16
4 8 5 4 6 6 6 7 8 9 8 8 6 6 7 8 10 10 15 15 15 15 15 14 14 14 15 15 13 12 12 12 13 13 13 13 13 13 12 13 13 14 16 16 17 17 16 17 18 19 19 20 19 17
6 7 9 9 8 8 9 10 10 10 9 7 7 7 7 5 8 11 13 14 15 16 16 15 15 15 15 14 15 15 15 15 14 14 14 13 14 15 15 15 15 16 16 16 17 19 20 18 16 16 17 17 18 17
8 7 7 9 9 9 8 8 9 8 8 9 9 8 7 5 9 11 13 15 16 17 17 17 18 18 18 17 16 15 15 14 14 15 15 15 15 16 17 19 19 18 18 18 18 18 20 19 18 17 17 17 16 14
9 8 6 7 8 9 11 12 11 11 10 9 10 10 10 11 12 13 15 16 17 17 16 17 17 17 19 19 19 17 17 16 15 15 14 14 15 16 17 18 17 16 14 14 15 16 19 20 19 17 17 17 16 13
7 7 6 6 7 9 9 9 9 9 9 10 10 10 11 12 13 14 14 15 17 18 18 19 18 18 17 17 18 18 18 18 17 16 15 15 16 16 16 15 14 14 14 14 15 16 17 18 18 18 17 17 17 14
6 6 6 6 8 8 8 8 9 9 10 10 10 10 11 11 13 14 16 17 17 17 18 18 19 19 19 18 18 17 18 19 19 19 19 18 17 17 17 18 17 17 17 16 15 16 16 17 18 18 17 16 16 16
5 5 6 6 7 8 8 8 8 9 10 10 10 10 11 11 13 14 16 17 18 18 17 17 17 17 19 19 20 20 20 20 20 20 19 18 19 19 18 18 18 17 17 17 17 17 17 17 17 17 17 17 16 15
5 5 5 6 8 8 8 8 8 9 10 10 10 10 10 11 13 14 15 16 16 17 17 16 17 17 18 18 19 19 19 19 19 19 19 19 19 19 18 17 17 17 17 17 17 17 17 17 17 17 17 16 16 16
Wind_Direction
330 326 324 325 328 326 324 323 324 327 327 324 321 316 314 303 303 301 303 305 292 294 296 296 297 279 282 284 279 294 331 333 314 290 283 310 274 321 293 288 308 318 317 325 303 276 253 301 234 267 259 306 316 334
332 330 329 329 326 323 319 319 324 327 327 328 326 321 305 304 299 294 299 301 301 286 292 294 290 283 272 265 252 293 297 301 288 305 308 310 297 301 299 289 303 272 278 272 270 218 165 116 100 142 237 313 324 326
333 332 333 330 324 319 316 317 322 325 329 328 322 309 311 301 296 293 302 293 293 291 303 299 293 289 259 245 265 273 279 274 284 288 293 291 286 286 291 257 305 292 294 273 153 188 189 208 245 254 269 297 296 302
338 334 328 325 322 318 317 321 324 327 327 324 320 303 304 302 291 290 293 281 288 299 298 281 285 281 280 276 267 277 264 267 273 286 277 270 271 270 267 268 269 284 282 261 245 221 242 260 271 278 275 275 286 295
340 334 328 325 322 321 322 324 326 328 325 322 317 310 313 301 298 299 256 303 297 290 273 276 298 293 281 259 268 270 270 275 280 289 278 269 273 273 272 271 265 265 254 214 226 235 236 267 277 285 286 285 282 287
335 335 330 324 321 323 324 329 330 330 325 322 319 312 301 293 290 290 299 302 290 272 281 288 296 293 285 269 246 263 269 280 284 278 272 270 271 254 254 260 262 259 249 239 238 238 250 269 279 285 290 293 293 287
333 332 328 320 321 326 328 329 331 329 325 323 322 317 313 303 290 283 281 291 281 257 275 295 288 295 287 236 225 267 289 285 285 274 264 261 262 245 248 254 266 261 253 244 242 249 263 272 282 286 288 294 298 297
332 331 327 319 322 325 327 329 331 328 328 328 325 319 319 303 288 286 280 171 279 310 291 251 260 275 281 263 273 298 297 291 279 262 255 249 245 239 242 243 242 242 248 253 265 270 275 279 282 288 293 294 295 296
332 331 331 329 327 328 330 331 330 331 333 330 327 323 319 310 230 243 279 306 322 277 274 249 271 265 276 292 304 303 281 261 263 251 241 233 216 212 195 208 221 241 259 271 277 286 281 276 284 290 292 296 298 297
335 334 330 328 331 332 332 331 334 336 335 334 333 328 315 326 295 275 293 286 278 302 216 293 309 309 313 312 306 242 244 239 227 241 228 213 169 170 187 216 244 264 277 285 290 288 294 304 301 300 301 303 303 301
336 334 331 333 333 333 333 337 339 341 339 341 342 335 334 339 53 63 36 21 19 20 30 338 322 320 318 302 252 237 230 231 211 211 197 158 155 177 201 242 262 274 282 287 292 296 297 298 302 304 306 307 306 304
335 335 335 335 334 334 337 342 345 346 348 354 11 56 54 44 32 29 27 23 6 348 336 327 327 328 324 302 232 245 223 220 211 189 179 107 176 216 266 285 291 291 291 291 292 292 293 298 302 307 309 310 310 309
335 336 336 334 335 339 342 344 347 353 354 353 355 3 26 33 39 42 14 348 329 320 319 323 328 328 320 305 245 244 235 225 166 176 136 180 200 257 286 293 295 292 290 289 290 289 290 292 299 306 311 313 316 318
336 335 335 336 340 344 346 343 346 349 353 341 10 36 47 29 17 359 346 335 326 323 322 321 320 299 286 265 237 240 199 157 132 72 108 211 264 291 298 300 296 293 289 287 286 285 285 288 292 300 306 313 318 323
335 334 336 342 342 346 345 344 341 348 354 22 44 49 32 16 2 348 341 338 332 325 321 318 313 291 274 254 228 175 155 70 73 82 256 284 297 302 304 304 301 298 295 290 285 281 280 281 283 287 294 299 304 311
335 336 340 344 345 347 345 346 354 355 45 57 57 40 21 12 358 348 340 337 339 338 336 339 326 303 275 33 102 59 72 59 326 302 304 307 309 310 312 313 311 308 305 300 294 287 282 278 280 283 286 289 293 294
337 340 341 344 345 345 350 357 349 47 58 65 51 38 29 11 359 348 343 342 343 346 354 344 346 58 46 53 52 51 57 332 328 325 323 322 322 322 321 321 319 316 314 312 306 299 294 290 286 286 286 287 288 289
341 341 343 344 345 344 347 2 52 71 79 69 50 41 19 3 2 2 358 349 347 3 14 61 52 69 61 58 43 23 358 342 338 339 334 329 326 322 320 319 317 316 315 314 311 307 304 301 299 297 296 294 294 293
341 344 345 347 348 350 356 35 58 80 75 74 52 27 19 23 24 25 27 25 29 47 55 64 63 70 69 54 28 7 355 346 341 337 332 328 324 320 319 317 315 314 313 313 311 309 307 305 303 301 300 298 297 296
343 343 346 352 1 353 45 66 65 77 79 69 43 32 33 34 31 28 31 41 53 79 80 75 65 58 50 38 26 16 7 359 353 349 346 341 335 331 328 324 320 317 314 311 309 306 304 303 301 300 299 296 294 294
345 348 350 357 4 46 82 70 82 78 73 65 52 47 45 50 50 52 56 64 72 68 62 59 55 48 42 34 26 17 9 1 353 345 338 332 327 323 320 318 317 315 313 312 311 310 310 308 306 305 303 302 300 298
348 351 356 1 26 57 65 71 84 84 83 76 67 62 58 58 59 55 55 53 55 53 50 45 41 36 31 25 17 9 2 356 349 345 347 345 342 336 335 333 329 326 325 323 317 315 314 312 310 308 305 302 300 299
346 351 354 30 44 58 55 68 74 82 87 83 77 67 57 55 53 50 49 46 45 42 40 39 37 33 28 24 20 16 11 8 1 352 349 348 348 345 337 335 334 330 328 327 324 320 318 315 313 310 306 302 300 298
347 358 26 33 51 71 62 69 80 78 84 90 85 74 59 53 49 42 36 34 31 30 28 24 18 14 12 12 9 3 359 358 358 358 351 346 344 345 344 340 337 336 332 329 327 324 321 320 317 312 307 303 300 298
356 23 44 38 55 68 62 64 75 87 89 84 77 68 55 47 40 34 27 23 18 13 10 8 8 9 8 4 359 358 356 353 352 349 349 348 345 343 342 341 339 336 336 335 334 331 327 323 322 320 317 311 304 297
33 41 43 52 67 73 77 70 69 79 78 72 65 59 50 39 34 17 14 14 14 12 10 9 7 3 358 359 359 356 352 349 348 347 346 343 342 341 341 341 339 333 333 332 334 337 335 329 326 321 318 316 315 310
60 68 59 70 86 84 85 83 80 74 65 58 58 48 37 34 21 10 10 10 11 12 12 11 11 11 10 6 -0 359 358 356 355 355 357 355 353 352 349 347 346 345 343 342 343 345 345 345 338 328 323 320 317 314
58 72 73 77 83 79 89 94 81 65 62 56 61 53 46 35 21 15 16 17 15 12 9 10 11 9 9 14 14 12 9 5 2 1 359 359 355 351 350 348 347 347 348 347 345 343 346 351 349 345 341 337 331 323
59 65 81 94 97 92 86 83 80 76 70 64 62 58 49 38 31 27 23 20 20 21 22 19 17 15 11 13 16 16 15 14 11 6 3 0 357 352 349 348 347 346 345 345 347 353 356 357 358 358 357 355 352 348
60 60 86 102 112 100 91 88 83 76 68 62 58 54 48 42 36 34 33 32 29 28 29 28 26 25 23 19 16 17 17 17 16 16 15 12 8 5 4 7 9 7 4 4 4 4 4 5 7 8 9 12 14 16
61 70 84 110 119 114 102 92 83 74 65 59 57 54 49 42 39 38 37 35 34 31 28 26 26 28 28 29 29 27 23 22 22 23 22 20 16 17 17 17 17 16 14 13 12 11 11 13 15 18 19 21 24 28
63 85 84 115 122 121 114 102 87 75 66 60 57 52 46 43 42 38 33 30 28 27 27 25 23 21 21 21 22 23 23 22 22 21 21 21 21 20 18 17 16 16 17 18 18 18 18 18 19 21 23 26 29 30
66 94 95 119 126 127 128 114 98 83 71 62 52 45 44 43 39 32 27 24 22 22 22 22 21 20 19 18 17 16 16 15 16 16 17 16 16 16 15 15 17 18 18 18 17 17 18 19 21 22 23 25 27 30
Height
3085 3081 3076 3071 3066 3061 3056 3052 3048 3042 3037 3030 3024 3019 3015 3011 3008 3005 3001 2998 2996 2992 2990 2987 2986 2986 2984 2984 2983 2982 2981 2978 2978 2976 2976 2973 2974 2972 2972 2972 2971 2971 2969 2968 2967 2966 2967 2965 2965 2966 2966 2963 2961 2960
3080 3076 3071 3066 3061 3057 3052 3047 3042 3036 3030 3024 3017 3012 3008 3003 3001 2998 2995 2992 2990 2988 2987 2984 2981 2980 2979 2980 2980 2979 2979 2977 2976 2976 2975 2974 2973 2972 2971 2970 2969 2971 2970 2969 2970 2968 2967 2966 2966 2965 2964 2963 2962 2961
3076 3071 3065 3061 3056 3051 3046 3041 3036 3030 3023 3017 3010 3005 3000 2996 2993 2991 2988 2987 2984 2982 2980 2979 2977 2976 2976 2976 2976 2977 2976 2975 2974 2974 2973 2973 2972 2971 2971 2968 2969 2968 2968 2968 2968 2968 2967 2967 2967 2967 2966 2965 2964 2964
3072 3066 3061 3056 3051 3045 3040 3035 3030 3023 3016 3009 3002 2997 2993 2989 2986 2983 2982 2981 2980 2978 2976 2976 2973 2973 2973 2973 2973 2973 2972 2972 2972 2971 2971 2971 2971 2969 2968 2968 2968 2968 2967 2966 2967 2966 2967 2967 2967 2967 2966 2966 2966 2965
3068 3062 3056 3050 3045 3040 3035 3029 3023 3016 3008 3000 2993 2988 2984 2982 2979 2977 2975 2975 2974 2976 2974 2973 2971 2970 2969 2969 2969 2969 2969 2969 2968 2968 2968 2968 2967 2968 2966 2966 2964 2964 2964 2965 2965 2966 2966 2966 2965 2965 2965 2965 2965 2965
3064 3057 3051 3045 3039 3034 3029 3022 3015 3008 3000 2992 2985 2981 2979 2976 2974 2973 2971 2970 2969 2969 2970 2969 2968 2966 2965 2965 2966 2966 2966 2965 2965 2965 2965 2964 2964 2965 2964 2962 2962 2962 2962 2963 2964 2964 2964 2964 2964 2963 2963 2963 2963 2963
3058 3051 3045 3040 3034 3029 3023 3016 3008 3000 2991 2984 2979 2975 2972 2969 2967 2968 2968 2966 2966 2966 2967 2966 2964 2963 2963 2963 2963 2963 2963 2963 2963 2962 2962 2962 2962 2962 2961 2961 2961 2961 2961 2961 2962 2962 2962 2962 2961 2961 2960 2960 2959 2959
3052 3045 3039 3033 3028 3022 3015 3008 3000 2991 2984 2978 2973 2970 2968 2966 2964 2964 2963 2962 2963 2964 2964 2964 2963 2963 2962 2962 2962 2961 2961 2961 2960 2960 2960 2960 2960 2960 2960 2959 2959 2959 2960 2960 2960 2960 2960 2960 2959 2959 2958 2957 2956 2955
3046 3039 3032 3027 3021 3015 3008 3000 2991 2984 2978 2973 2970 2967 2965 2963 2963 2963 2961 2961 2961 2964 2962 2962 2962 2962 2960 2960 2960 2959 2959 2958 2958 2958 2958 2960 2958 2958 2958 2958 2959 2958 2959 2959 2959 2959 2959 2958 2957 2957 2956 2955 2954 2953
3039 3032 3027 3021 3015 3008 3000 2993 2985 2979 2974 2970 2967 2965 2963 2962 2962 2962 2960 2960 2960 2960 2960 2961 2961 2960 2961 2958 2958 2959 2957 2957 2956 2957 2957 2956 2956 2958 2958 2958 2958 2958 2958 2958 2957 2958 2956 2955 2955 2954 2953 2952 2951 2950
3033 3027 3021 3015 3009 3001 2993 2986 2981 2976 2972 2968 2965 2964 2962 2961 2961 2961 2961 2961 2961 2961 2961 2960 2960 2958 2957 2956 2956 2956 2955 2955 2955 2956 2956 2956 2956 2957 2957 2958 2957 2957 2957 2956 2956 2955 2954 2954 2953 2952 2951 2950 2949 2947
3028 3022 3016 3010 3002 2995 2988 2983 2978 2974 2970 2967 2966 2964 2963 2962 2962 2963 2961 2962 2961 2961 2961 2959 2957 2956 2955 2954 2954 2955 2954 2955 2954 2955 2955 2956 2956 2956 2956 2956 2956 2956 2955 2954 2954 2953 2952 2952 2951 2950 2949 2947 2946 2945
3023 3017 3011 3004 2996 2990 2985 2981 2977 2973 2969 2967 2966 2965 2964 2965 2964 2963 2963 2963 2962 2961 2959 2957 2956 2954 2953 2953 2953 2953 2953 2953 2953 2954 2954 2955 2955 2955 2955 2955 2954 2954 2953 2952 2952 2951 2950 2950 2949 2948 2947 2946 2944 2943
3019 3013 3006 2999 2992 2988 2984 2979 2975 2972 2969 2967 2966 2966 2966 2966 2967 2966 2964 2963 2961 2958 2956 2955 2954 2953 2952 2952 2952 2952 2952 2953 2953 2954 2956 2955 2955 2955 2954 2953 2952 2952 2951 2950 2950 2949 2948 2948 2947 2946 2945 2944 2943 2941
3015 3008 3001 2994 2990 2986 2982 2978 2973 2971 2969 2967 2968 2968 2969 2969 2967 2965 2963 2961 2959 2956 2954 2953 2952 2952 2951 2951 2951 2952 2952 2953 2954 2956 2955 2954 2954 2953 2952 2951 2950 2949 2948 2948 2947 2947 2946 2945 2945 2944 2943 2942 2941 2940
3011 3004 2997 2992 2988 2984 2979 2975 2972 2971 2968 2969 2971 2972 2971 2969 2967 2965 2962 2960 2957 2955 2953 2952 2952 2951 2951 2951 2951 2951 2953 2955 2956 2954 2953 2953 2952 2951 2950 2949 2948 2947 2946 2945 2944 2944 2943 2943 2942 2941 2940 2939 2938 2937
3006 3001 2996 2991 2986 2982 2978 2975 2973 2970 2971 2973 2974 2973 2972 2970 2967 2964 2962 2959 2957 2955 2953 2952 2952 2952 2952 2952 2953 2953 2955 2955 2954 2953 2952 2951 2950 2950 2949 2948 2947 2946 2944 2943 2942 2941 2940 2939 2939 2938 2937 2936 2935 2934
3003 2998 2994 2990 2986 2981 2978 2976 2973 2974 2975 2976 2976 2975 2973 2970 2967 2963 2960 2957 2956 2954 2953 2953 2953 2953 2954 2955 2956 2956 2955 2954 2953 2952 2951 2950 2949 2949 2948 2947 2946 2944 2943 2942 2941 2939 2938 2937 2936 2934 2933 2932 2931 2930
3001 2997 2993 2989 2985 2981 2978 2977 2976 2977 2978 2978 2978 2977 2974 2970 2966 2963 2959 2957 2956 2955 2955 2955 2956 2956 2957 2957 2957 2956 2955 2954 2953 2952 2951 2950 2949 2947 2946 2945 2944 2943 2941 2940 2939 2937 2936 2934 2933 2931 2930 2929 2927 2926
2999 2994 2991 2988 2984 2981 2980 2980 2980 2980 2981 2982 2980 2978 2975 2972 2969 2965 2962 2960 2958 2957 2957 2958 2959 2959 2959 2958 2957 2956 2955 2954 2953 2951 2950 2949 2948 2946 2945 2944 2942 2941 2939 2938 2936 2935 2933 2932 2930 2928 2927 2925 2924 2923
2997 2993 2990 2987 2984 2982 2981 2982 2982 2983 2983 2983 2983 2981 2979 2978 2975 2972 2969 2967 2964 2961 2962 2963 2962 2962 2961 2960 2958 2957 2956 2955 2953 2952 2950 2949 2947 2945 2944 2942 2940 2939 2937 2935 2934 2932 2930 2928 2927 2925 2923 2921 2920 2918
2996 2993 2990 2988 2986 2984 2985 2985 2985 2985 2986 2986 2985 2984 2983 2981 2979 2977 2974 2971 2968 2969 2968 2967 2966 2964 2963 2961 2960 2958 2957 2955 2953 2951 2949 2948 2946 2944 2942 2940 2938 2936 2935 2933 2931 2929 2927 2925 2923 2921 2919 2917 2915 2914
2996 2994 2992 2989 2988 2988 2991 2988 2988 2987 2988 2988 2988 2987 2986 2984 2982 2981 2978 2976 2975 2973 2972 2970 2968 2967 2964 2962 2961 2959 2957 2955 2953 2951 2949 2947 2945 2943 2941 2939 2937 2935 2932 2930 2928 2926 2924 2921 2919 2917 2915 2913 2910 2909
2996 2994 2992 2992 2992 2992 2992 2991 2990 2990 2990 2990 2990 2990 2989 2988 2986 2984 2982 2980 2979 2977 2974 2972 2970 2968 2966 2963 2961 2959 2957 2955 2953 2951 2948 2946 2944 2941 2939 2937 2935 2933 2931 2928 2926 2923 2920 2917 2914 2912 2910 2908 2906 2904
2998 2996 2997 2995 2994 2995 2994 2993 2993 2993 2993 2993 2992 2992 2991 2990 2989 2988 2986 2984 2981 2979 2976 2974 2971 2969 2967 2964 2961 2959 2957 2954 2952 2950 2948 2945 2943 2940 2938 2936 2933 2931 2928 2925 2923 2920 2916 2913 2910 2907 2904 2902 2900 2899
2997 2998 2999 2997 2997 2997 2996 2996 2995 2995 2995 2994 2994 2994 2993 2992 2991 2991 2988 2986 2983 2981 2978 2975 2972 2970 2967 2964 2962 2960 2957 2954 2952 2949 2947 2944 2942 2940 2937 2935 2932 2930 2926 2923 2920 2917 2914 2910 2906 2903 2900 2897 2894 2893
3000 3000 3000 2999 2998 2998 2998 2998 2998 2997 2997 2997 2996 2995 2995 2994 2994 2993 2990 2988 2985 2982 2979 2976 2973 2971 2968 2965 2962 2959 2956 2953 2951 2949 2946 2943 2940 2938 2936 2933 2930 2928 2924 2921 2918 2914 2910 2907 2903 2900 2897 2893 2890 2888
3002 3001 3002 3002 3001 3000 3000 3000 3000 3000 3000 3000 2999 2998 2998 2998 2997 2995 2992 2989 2986 2983 2979 2977 2974 2971 2968 2965 2962 2960 2957 2954 2951 2948 2945 2942 2940 2937 2934 2931 2928 2925 2922 2919 2916 2913 2909 2905 2901 2898 2894 2890 2887 2884
3004 3003 3004 3003 3004 3003 3003 3003 3003 3003 3004 3003 3002 3001 3000 2999 2998 2995 2993 2990 2987 2985 2982 2979 2976 2972 2969 2966 2963 2960 2957 2954 2951 2948 2945 2943 2940 2937 2934 2930 2927 2925 2922 2919 2916 2912 2908 2904 2900 2896 2893 2889 2885 2882
3006 3006 3005 3005 3006 3006 3007 3007 3007 3007 3006 3005 3004 3003 3002 3001 2999 2997 2995 2992 2989 2987 2984 2981 2978 2975 2971 2968 2965 2962 2959 2955 2952 2950 2947 2944 2941 2937 2934 2931 2928 2925 2922 2919 2916 2912 2909 2905 2901 2897 2894 2890 2887 2883
3008 3008 3007 3007 3008 3009 3009 3009 3009 3009 3008 3008 3007 3006 3004 3003 3002 2999 2997 2995 2992 2989 2986 2984 2980 2977 2974 2971 2968 2965 2961 2958 2955 2951 2948 2945 2942 2938 2935 2932 2929 2926 2923 2919 2916 2913 2910 2907 2903 2899 2896 2892 2889 2887
3010 3009 3009 3009 3010 3011 3011 3012 3012 3012 3011 3010 3009 3008 3007 3006 3004 3002 3000 2997 2994 2992 2989 2986 2984 2981 2977 2974 2970 2967 2963 2960 2957 2953 2950 2948 2944 2940 2937 2934 2931 2928 2924 2921 2918 2915 2912 2909 2906 2902 2899 2896 2893 2890
3011 3011 3011 3011 3012 3013 3014 3014 3014 3014 3013 3013 3012 3010 3009 3008 3006 3004 3002 3000 2997 2995 2992 2989 2986 2983 2980 2976 2973 2969 2966 2962 2959 2956 2952 2949 2946 2943 2939 2936 2933 2930 2927 2923 2920 2917 2914 2911 2908 2905 2902 2900 2897 2894